Location: Newark
(54.0500°N, 12.8333°E)
Time: 14:12:34
(UTC+00:00)

Transit 2A Rocket - Visible Passes

Search period start: 26 January 2020 00:00
Search period end: 05 February 2020 00:00
Orbit: 593 x 910 km, 66.7° (Epoch: 25 January)

Date Brightness Start Highest point End Pass type
(mag) Time Alt. Az. Time Alt. Az. Time Alt. Az.
26 Jan 6.9 03:32:16 16° SE 03:33:43 18° ESE 03:36:44 10° ENE visible
26 Jan 4.4 05:12:14 16° SW 05:15:42 78° NW 05:20:09 10° NE visible
27 Jan 7.5 02:51:38 11° ESE 02:51:38 11° ESE 02:52:42 10° E visible
27 Jan 4.7 04:31:34 37° SSW 04:33:10 67° SE 04:37:33 10° NE visible
27 Jan 5.5 06:12:14 10° W 06:16:05 30° NNW 06:20:05 10° NNE visible
28 Jan 5.6 03:50:42 41° ESE 03:50:44 41° ESE 03:54:53 10° NE visible
28 Jan 5.0 05:30:38 19° W 05:33:18 41° NW 05:37:34 10° NE visible
29 Jan 6.8 03:09:42 22° E 03:09:42 22° E 03:12:01 10° ENE visible
29 Jan 4.5 04:49:37 46° W 04:50:37 59° NW 04:55:03 10° NE visible
30 Jan 7.7 02:28:35 11° ENE 02:28:35 11° ENE 02:28:46 10° ENE visible
30 Jan 4.6 04:08:30 71° NE 04:08:30 71° NE 04:12:30 10° NE visible
30 Jan 5.7 05:48:25 15° WNW 05:51:09 26° NNW 05:55:00 10° NNE visible
31 Jan 6.1 03:27:18 32° ENE 03:27:18 32° ENE 03:29:54 10° NE visible
31 Jan 5.4 05:07:12 29° WNW 05:08:20 33° NNW 05:12:27 10° NNE visible
01 Feb 7.3 02:46:01 17° ENE 02:46:01 17° ENE 02:47:09 10° NE visible
01 Feb 5.0 04:25:55 45° NNW 04:25:55 45° NNW 04:29:57 10° NE visible
01 Feb 6.2 06:05:58 10° WNW 06:09:13 19° NNW 06:12:35 10° NNE visible
02 Feb 5.7 03:44:36 37° NNE 03:44:36 37° NNE 03:47:25 10° NE visible
02 Feb 6.0 05:24:30 18° NW 05:26:16 23° NNW 05:29:56 10° NNE visible
03 Feb 6.8 03:03:14 22° NE 03:03:14 22° NE 03:04:51 10° NE visible
03 Feb 5.6 04:43:08 28° NW 04:43:24 28° NNW 04:47:22 10° NNE visible
04 Feb 7.6 02:21:50 12° NE 02:21:50 12° NE 02:22:12 10° NE visible
04 Feb 5.8 04:01:44 31° N 04:01:44 31° N 04:04:50 10° NE visible
04 Feb 6.4 05:41:38 11° NW 05:44:23 18° N 05:47:39 10° NE visible
